Year,Month,Day,Hour,Minute,Value (Times are PST for temperature in C)
2015,09,24,00,00,9.60
2015,09,24,00,01,9.60
2015,09,24,00,02,9.50
2015,09,24,00,03,9.50
2015,09,24,00,04,9.50
2015,09,24,00,05,9.50
2015,09,24,00,06,9.50
2015,09,24,00,07,9.40
2015,09,24,00,08,9.40
2015,09,24,00,09,9.40
2015,09,24,00,10,9.40
2015,09,24,00,11,9.40
2015,09,24,00,12,9.40
2015,09,24,00,13,9.30
2015,09,24,00,14,9.30
2015,09,24,00,15,9.30
2015,09,24,00,16,9.30
2015,09,24,00,17,9.30
2015,09,24,00,18,9.30
2015,09,24,00,19,9.30
2015,09,24,00,20,9.30
2015,09,24,00,21,9.30
2015,09,24,00,22,9.30
2015,09,24,00,23,9.30
2015,09,24,00,24,9.30
2015,09,24,00,25,9.30
2015,09,24,00,26,9.30
2015,09,24,00,27,9.30
2015,09,24,00,28,9.30
2015,09,24,00,29,9.30
2015,09,24,00,30,9.30
2015,09,24,00,31,9.30
2015,09,24,00,32,9.30
2015,09,24,00,33,9.30
2015,09,24,00,34,9.30
2015,09,24,00,35,9.30
2015,09,24,00,36,9.30
2015,09,24,00,37,9.30
2015,09,24,00,38,9.30
2015,09,24,00,39,9.30
2015,09,24,00,40,9.30
2015,09,24,00,41,9.40
2015,09,24,00,42,9.40
2015,09,24,00,43,9.40
2015,09,24,00,44,9.40
2015,09,24,00,45,9.40
2015,09,24,00,46,9.40
2015,09,24,00,47,9.40
2015,09,24,00,48,9.30
2015,09,24,00,49,9.30
2015,09,24,00,50,9.30
2015,09,24,00,51,9.30
2015,09,24,00,52,9.30
2015,09,24,00,53,9.30
2015,09,24,00,54,9.30
2015,09,24,00,55,9.30
2015,09,24,00,56,9.30
2015,09,24,00,57,9.30
2015,09,24,00,58,9.30
2015,09,24,00,59,9.30
2015,09,24,01,00,9.30
2015,09,24,01,01,9.30
2015,09,24,01,02,9.30
2015,09,24,01,03,9.30
2015,09,24,01,04,9.30
2015,09,24,01,05,9.30
2015,09,24,01,06,9.30
2015,09,24,01,07,9.30
2015,09,24,01,08,9.30
2015,09,24,01,09,9.30
2015,09,24,01,10,9.30
2015,09,24,01,11,9.30
2015,09,24,01,12,9.30
2015,09,24,01,13,9.30
2015,09,24,01,14,9.30
2015,09,24,01,15,9.30
2015,09,24,01,16,9.30
2015,09,24,01,17,9.30
2015,09,24,01,18,9.30
2015,09,24,01,19,9.40
2015,09,24,01,20,9.30
2015,09,24,01,21,9.30
2015,09,24,01,22,9.30
2015,09,24,01,23,9.40
2015,09,24,01,24,9.40
2015,09,24,01,25,9.40
2015,09,24,01,26,9.40
2015,09,24,01,27,9.40
2015,09,24,01,28,9.40
2015,09,24,01,29,9.40
2015,09,24,01,30,9.40
2015,09,24,01,31,9.40
2015,09,24,01,32,9.40
2015,09,24,01,33,9.40
2015,09,24,01,34,9.40
2015,09,24,01,35,9.40
2015,09,24,01,36,9.40
2015,09,24,01,37,9.40
2015,09,24,01,38,9.40
2015,09,24,01,39,9.40
2015,09,24,01,40,9.40
2015,09,24,01,41,9.40
2015,09,24,01,42,9.30
2015,09,24,01,43,9.30
2015,09,24,01,44,9.30
2015,09,24,01,45,9.30
2015,09,24,01,46,9.30
2015,09,24,01,47,9.30
2015,09,24,01,48,9.30
2015,09,24,01,49,9.30
2015,09,24,01,50,9.30
2015,09,24,01,51,9.30
2015,09,24,01,52,9.30
2015,09,24,01,53,9.40
2015,09,24,01,54,9.40
2015,09,24,01,55,9.40
2015,09,24,01,56,9.40
2015,09,24,01,57,9.40
2015,09,24,01,58,9.40
2015,09,24,01,59,9.40
2015,09,24,02,00,9.40
2015,09,24,02,01,9.40
2015,09,24,02,02,9.40
2015,09,24,02,03,9.40
2015,09,24,02,04,9.40
2015,09,24,02,05,9.40
2015,09,24,02,06,9.40
2015,09,24,02,07,9.40
2015,09,24,02,08,9.40
2015,09,24,02,09,9.40
2015,09,24,02,10,9.40
2015,09,24,02,11,9.30
2015,09,24,02,12,9.30
2015,09,24,02,13,9.30
2015,09,24,02,14,9.30
2015,09,24,02,15,9.30
2015,09,24,02,16,9.30
2015,09,24,02,17,9.30
2015,09,24,02,18,9.30
2015,09,24,02,19,9.30
2015,09,24,02,20,9.30
2015,09,24,02,21,9.30
2015,09,24,02,22,9.30
2015,09,24,02,23,9.30
2015,09,24,02,24,9.30
2015,09,24,02,25,9.20
2015,09,24,02,26,9.20
2015,09,24,02,27,9.20
2015,09,24,02,28,9.20
2015,09,24,02,29,9.20
2015,09,24,02,30,9.20
2015,09,24,02,31,9.30
2015,09,24,02,32,9.30
2015,09,24,02,33,9.30
2015,09,24,02,34,9.30
2015,09,24,02,35,9.40
2015,09,24,02,36,9.40
2015,09,24,02,37,9.40
2015,09,24,02,38,9.40
2015,09,24,02,39,9.40
2015,09,24,02,40,9.40
2015,09,24,02,41,9.40
2015,09,24,02,42,9.40
2015,09,24,02,43,9.50
2015,09,24,02,44,9.50
2015,09,24,02,45,9.50
2015,09,24,02,46,9.50
2015,09,24,02,47,9.50
2015,09,24,02,48,9.50
2015,09,24,02,49,9.50
2015,09,24,02,50,9.50
2015,09,24,02,51,9.50
2015,09,24,02,52,9.50
2015,09,24,02,53,9.50
2015,09,24,02,54,9.50
2015,09,24,02,55,9.50
2015,09,24,02,56,9.50
2015,09,24,02,57,9.50
2015,09,24,02,58,9.50
2015,09,24,02,59,9.50
2015,09,24,03,00,9.50
2015,09,24,03,01,9.50
2015,09,24,03,02,9.50
2015,09,24,03,03,9.50
2015,09,24,03,04,9.50
2015,09,24,03,05,9.50
2015,09,24,03,06,9.50
2015,09,24,03,07,9.50
2015,09,24,03,08,9.60
2015,09,24,03,09,9.60
2015,09,24,03,10,9.60
2015,09,24,03,11,9.60
2015,09,24,03,12,9.60
2015,09,24,03,13,9.60
2015,09,24,03,14,9.60
2015,09,24,03,15,9.60
2015,09,24,03,16,9.60
2015,09,24,03,17,9.60
2015,09,24,03,18,9.60
2015,09,24,03,19,9.60
2015,09,24,03,20,9.60
2015,09,24,03,21,9.60
2015,09,24,03,22,9.60
2015,09,24,03,23,9.60
2015,09,24,03,24,9.60
2015,09,24,03,25,9.60
2015,09,24,03,26,9.60
2015,09,24,03,27,9.60
2015,09,24,03,28,9.60
2015,09,24,03,29,9.60
2015,09,24,03,30,9.60
2015,09,24,03,31,9.60
2015,09,24,03,32,9.60
2015,09,24,03,33,9.60
2015,09,24,03,34,9.60
2015,09,24,03,35,9.60
2015,09,24,03,36,9.70
2015,09,24,03,37,9.70
2015,09,24,03,38,9.70
2015,09,24,03,39,9.70
2015,09,24,03,40,9.70
2015,09,24,03,41,9.70
2015,09,24,03,42,9.70
2015,09,24,03,43,9.70
2015,09,24,03,44,9.70
2015,09,24,03,45,9.70
2015,09,24,03,46,9.70
2015,09,24,03,47,9.70
2015,09,24,03,48,9.70
2015,09,24,03,49,9.70
2015,09,24,03,50,9.70
2015,09,24,03,51,9.70
2015,09,24,03,52,9.70
2015,09,24,03,53,9.70
2015,09,24,03,54,9.70
2015,09,24,03,55,9.70
2015,09,24,03,56,9.70
2015,09,24,03,57,9.70
2015,09,24,03,58,9.80
2015,09,24,03,59,9.80
2015,09,24,04,00,9.80
2015,09,24,04,01,9.80
2015,09,24,04,02,9.80
2015,09,24,04,03,9.80
2015,09,24,04,04,9.80
2015,09,24,04,05,9.80
2015,09,24,04,06,9.80
2015,09,24,04,07,9.80
2015,09,24,04,08,9.80
2015,09,24,04,09,9.80
2015,09,24,04,10,9.80
2015,09,24,04,11,9.90
2015,09,24,04,12,9.90
2015,09,24,04,13,9.90
2015,09,24,04,14,9.90
2015,09,24,04,15,9.90
2015,09,24,04,16,9.90
2015,09,24,04,17,9.90
2015,09,24,04,18,9.90
2015,09,24,04,19,9.90
2015,09,24,04,20,9.90
2015,09,24,04,21,9.90
2015,09,24,04,22,10.00
2015,09,24,04,23,10.00
2015,09,24,04,24,10.00
2015,09,24,04,25,10.00
2015,09,24,04,26,10.00
2015,09,24,04,27,10.00
2015,09,24,04,28,10.00
2015,09,24,04,29,10.00
2015,09,24,04,30,10.10
2015,09,24,04,31,10.10
2015,09,24,04,32,10.10
2015,09,24,04,33,10.10
2015,09,24,04,34,10.10
2015,09,24,04,35,10.10
2015,09,24,04,36,10.10
2015,09,24,04,37,10.10
2015,09,24,04,38,10.10
2015,09,24,04,39,10.10
2015,09,24,04,40,10.10
2015,09,24,04,41,10.10
2015,09,24,04,42,10.10
2015,09,24,04,43,10.00
2015,09,24,04,44,10.00
2015,09,24,04,45,10.00
2015,09,24,04,46,10.10
2015,09,24,04,47,10.10
2015,09,24,04,48,10.10
2015,09,24,04,49,10.10
2015,09,24,04,50,10.10
2015,09,24,04,51,10.10
2015,09,24,04,52,10.10
2015,09,24,04,53,10.10
2015,09,24,04,54,10.00
2015,09,24,04,55,10.10
2015,09,24,04,56,10.10
2015,09,24,04,57,10.10
2015,09,24,04,58,10.10
2015,09,24,04,59,10.10
2015,09,24,05,00,10.10
2015,09,24,05,01,10.10
2015,09,24,05,02,10.10
2015,09,24,05,03,10.10
2015,09,24,05,04,10.10
2015,09,24,05,05,10.10
2015,09,24,05,06,10.10
2015,09,24,05,07,10.10
2015,09,24,05,08,10.20
2015,09,24,05,09,10.20
2015,09,24,05,10,10.20
2015,09,24,05,11,10.20
2015,09,24,05,12,10.20
2015,09,24,05,13,10.20
2015,09,24,05,14,10.20
2015,09,24,05,15,10.20
2015,09,24,05,16,10.20
2015,09,24,05,17,10.20
2015,09,24,05,18,10.20
2015,09,24,05,19,10.20
2015,09,24,05,20,10.20
2015,09,24,05,21,10.20
2015,09,24,05,22,10.20
2015,09,24,05,23,10.30
2015,09,24,05,24,10.30
2015,09,24,05,25,10.30
2015,09,24,05,26,10.30
2015,09,24,05,27,10.30
2015,09,24,05,28,10.30
2015,09,24,05,29,10.30
2015,09,24,05,30,10.30
2015,09,24,05,31,10.30
2015,09,24,05,32,10.30
2015,09,24,05,33,10.30
2015,09,24,05,34,10.30
2015,09,24,05,35,10.30
2015,09,24,05,36,10.30
2015,09,24,05,37,10.30
2015,09,24,05,38,10.30
2015,09,24,05,39,10.30
2015,09,24,05,40,10.30
2015,09,24,05,41,10.30
2015,09,24,05,42,10.30
2015,09,24,05,43,10.40
2015,09,24,05,44,10.40
2015,09,24,05,45,10.40
2015,09,24,05,46,10.40
2015,09,24,05,47,10.40
2015,09,24,05,48,10.50
2015,09,24,05,49,10.50
2015,09,24,05,50,10.50
2015,09,24,05,51,10.60
2015,09,24,05,52,10.60
2015,09,24,05,53,10.60
2015,09,24,05,54,10.60
2015,09,24,05,55,10.60
2015,09,24,05,56,10.60
2015,09,24,05,57,10.60
2015,09,24,05,58,10.60
2015,09,24,05,59,10.70
2015,09,24,06,00,10.70
2015,09,24,06,01,10.70
2015,09,24,06,02,10.70
2015,09,24,06,03,10.70
2015,09,24,06,04,10.70
2015,09,24,06,05,10.70
2015,09,24,06,06,10.70
2015,09,24,06,07,10.70
2015,09,24,06,08,10.70
2015,09,24,06,09,10.70
2015,09,24,06,10,10.70
2015,09,24,06,11,10.70
2015,09,24,06,12,10.70
2015,09,24,06,13,10.70
2015,09,24,06,14,10.80
2015,09,24,06,15,10.80
2015,09,24,06,16,10.80
2015,09,24,06,17,10.80
2015,09,24,06,18,10.80
2015,09,24,06,19,10.80
2015,09,24,06,20,10.80
2015,09,24,06,21,10.80
2015,09,24,06,22,10.80
2015,09,24,06,23,10.80
2015,09,24,06,24,10.90
2015,09,24,06,25,10.90
2015,09,24,06,26,10.90
2015,09,24,06,27,10.90
2015,09,24,06,28,10.90
2015,09,24,06,29,10.90
2015,09,24,06,30,10.90
2015,09,24,06,31,10.90
2015,09,24,06,32,10.90
2015,09,24,06,33,10.90
2015,09,24,06,34,10.90
2015,09,24,06,35,10.90
2015,09,24,06,36,10.90
2015,09,24,06,37,10.90
2015,09,24,06,38,10.90
2015,09,24,06,39,10.90
2015,09,24,06,40,10.90
2015,09,24,06,41,10.90
2015,09,24,06,42,10.90
2015,09,24,06,43,10.90
2015,09,24,06,44,10.90
2015,09,24,06,45,11.00
2015,09,24,06,46,11.00
2015,09,24,06,47,11.00
2015,09,24,06,48,11.00
2015,09,24,06,49,11.00
2015,09,24,06,50,11.00
2015,09,24,06,51,11.10
2015,09,24,06,52,11.00
2015,09,24,06,53,11.10
2015,09,24,06,54,11.10
2015,09,24,06,55,11.10
2015,09,24,06,56,11.10
2015,09,24,06,57,11.10
2015,09,24,06,58,11.10
2015,09,24,06,59,11.10
2015,09,24,07,00,11.10
2015,09,24,07,01,11.10
2015,09,24,07,02,11.20
2015,09,24,07,03,11.20
2015,09,24,07,04,11.20
2015,09,24,07,05,11.20
2015,09,24,07,06,11.20
2015,09,24,07,07,11.20
2015,09,24,07,08,11.30
2015,09,24,07,09,11.30
2015,09,24,07,10,11.30
2015,09,24,07,11,11.30
2015,09,24,07,12,11.30
2015,09,24,07,13,11.30
2015,09,24,07,14,11.30
2015,09,24,07,15,11.30
2015,09,24,07,16,11.30
2015,09,24,07,17,11.30
2015,09,24,07,18,11.30
2015,09,24,07,19,11.30
2015,09,24,07,20,11.30
2015,09,24,07,21,11.30
2015,09,24,07,22,11.30
2015,09,24,07,23,11.30
2015,09,24,07,24,11.30
2015,09,24,07,25,11.30
2015,09,24,07,26,11.30
2015,09,24,07,27,11.30
2015,09,24,07,28,11.30
2015,09,24,07,29,11.30
2015,09,24,07,30,11.30
2015,09,24,07,31,11.30
2015,09,24,07,32,11.30
2015,09,24,07,33,11.30
2015,09,24,07,34,11.30
2015,09,24,07,35,11.30
2015,09,24,07,36,11.30
2015,09,24,07,37,11.30
2015,09,24,07,38,11.30
2015,09,24,07,39,11.30
2015,09,24,07,40,11.30
2015,09,24,07,41,11.30
2015,09,24,07,42,11.30
2015,09,24,07,43,11.30
2015,09,24,07,44,11.30
2015,09,24,07,45,11.30
2015,09,24,07,46,11.30
2015,09,24,07,47,11.30
2015,09,24,07,48,11.30
2015,09,24,07,49,11.30
2015,09,24,07,50,11.30
2015,09,24,07,51,11.40
2015,09,24,07,52,11.40
2015,09,24,07,53,11.40
2015,09,24,07,54,11.40
2015,09,24,07,55,11.40
2015,09,24,07,56,11.40
2015,09,24,07,57,11.40
2015,09,24,07,58,11.40
2015,09,24,07,59,11.40
2015,09,24,08,00,11.40
2015,09,24,08,01,11.40
2015,09,24,08,02,11.40
2015,09,24,08,03,11.40
2015,09,24,08,04,11.40
2015,09,24,08,05,11.40
2015,09,24,08,06,11.40
2015,09,24,08,07,11.40
2015,09,24,08,08,11.40
2015,09,24,08,09,11.40
2015,09,24,08,10,11.40
2015,09,24,08,11,11.40
2015,09,24,08,12,11.40
2015,09,24,08,13,11.40
2015,09,24,08,14,11.40
2015,09,24,08,15,11.40
2015,09,24,08,16,11.40
2015,09,24,08,17,11.40
2015,09,24,08,18,11.40
2015,09,24,08,19,11.40
2015,09,24,08,20,11.40
2015,09,24,08,21,11.50
2015,09,24,08,22,11.50
2015,09,24,08,23,11.50
2015,09,24,08,24,11.50
2015,09,24,08,25,11.50
2015,09,24,08,26,11.50
2015,09,24,08,27,11.50
2015,09,24,08,28,11.50
2015,09,24,08,29,11.50
2015,09,24,08,30,11.50
2015,09,24,08,31,11.50
2015,09,24,08,32,11.50
2015,09,24,08,33,11.50
2015,09,24,08,34,11.60
2015,09,24,08,35,11.60
2015,09,24,08,36,11.60
2015,09,24,08,37,11.60
2015,09,24,08,38,11.60
2015,09,24,08,39,11.60
2015,09,24,08,40,11.60
2015,09,24,08,41,11.60
2015,09,24,08,42,11.70
2015,09,24,08,43,11.70
2015,09,24,08,44,11.70
2015,09,24,08,45,11.70
2015,09,24,08,46,11.70
2015,09,24,08,47,11.70
2015,09,24,08,48,11.70
2015,09,24,08,49,11.70
2015,09,24,08,50,11.70
2015,09,24,08,51,11.80
2015,09,24,08,52,11.80
2015,09,24,08,53,11.80
2015,09,24,08,54,11.80
2015,09,24,08,55,11.80
2015,09,24,08,56,11.80
2015,09,24,08,57,11.80
2015,09,24,08,58,11.80
2015,09,24,08,59,11.80
2015,09,24,09,00,11.90
2015,09,24,09,01,11.90
2015,09,24,09,02,11.90
2015,09,24,09,03,11.90
2015,09,24,09,04,11.90
2015,09,24,09,05,12.00
2015,09,24,09,06,12.00
2015,09,24,09,07,12.00
2015,09,24,09,08,12.10
2015,09,24,09,09,12.10
2015,09,24,09,10,12.10
2015,09,24,09,11,12.10
2015,09,24,09,12,12.10
2015,09,24,09,13,12.20
2015,09,24,09,14,12.20
2015,09,24,09,15,12.20
2015,09,24,09,16,12.20
2015,09,24,09,17,12.20
2015,09,24,09,18,12.30
2015,09,24,09,19,12.30
2015,09,24,09,20,12.30
2015,09,24,09,21,12.30
2015,09,24,09,22,12.30
2015,09,24,09,23,12.30
2015,09,24,09,24,12.40
2015,09,24,09,25,12.40
2015,09,24,09,26,12.40
2015,09,24,09,27,12.40
2015,09,24,09,28,12.40
2015,09,24,09,29,12.50
2015,09,24,09,30,12.50
2015,09,24,09,31,12.50
2015,09,24,09,32,12.60
2015,09,24,09,33,12.60
2015,09,24,09,34,12.60
2015,09,24,09,35,12.60
2015,09,24,09,36,12.70
2015,09,24,09,37,12.70
2015,09,24,09,38,12.70
2015,09,24,09,39,12.70
2015,09,24,09,40,12.70
2015,09,24,09,41,12.80
2015,09,24,09,42,12.80
2015,09,24,09,43,12.80
2015,09,24,09,44,12.80
2015,09,24,09,45,12.90
2015,09,24,09,46,12.90
2015,09,24,09,47,12.90
2015,09,24,09,48,13.00
2015,09,24,09,49,13.00
2015,09,24,09,50,13.00
2015,09,24,09,51,13.10
2015,09,24,09,52,13.10
2015,09,24,09,53,13.20
2015,09,24,09,54,13.20
2015,09,24,09,55,13.20
2015,09,24,09,56,13.20
2015,09,24,09,57,13.30
2015,09,24,09,58,13.30
2015,09,24,09,59,13.30
2015,09,24,10,00,13.40
2015,09,24,10,01,13.40
2015,09,24,10,02,13.40
2015,09,24,10,03,13.50
2015,09,24,10,04,13.50
2015,09,24,10,05,13.50
2015,09,24,10,06,13.60
2015,09,24,10,07,13.60
2015,09,24,10,08,13.60
2015,09,24,10,09,13.70
2015,09,24,10,10,13.70
2015,09,24,10,11,13.80
2015,09,24,10,12,13.80
2015,09,24,10,13,13.80
2015,09,24,10,14,13.90
2015,09,24,10,15,13.90
2015,09,24,10,16,14.00
2015,09,24,10,17,14.00
2015,09,24,10,18,14.10
2015,09,24,10,19,14.10
2015,09,24,10,20,14.10
2015,09,24,10,21,14.20
2015,09,24,10,22,14.20
2015,09,24,10,23,14.30
2015,09,24,10,24,14.30
2015,09,24,10,25,14.30
2015,09,24,10,26,14.40
2015,09,24,10,27,14.40
2015,09,24,10,28,14.40
2015,09,24,10,29,14.50
2015,09,24,10,30,14.50
2015,09,24,10,31,14.50
2015,09,24,10,32,14.60
2015,09,24,10,33,14.60
2015,09,24,10,34,14.70
2015,09,24,10,35,14.70
2015,09,24,10,36,14.70
2015,09,24,10,37,14.70
2015,09,24,10,38,14.80
2015,09,24,10,39,14.80
2015,09,24,10,40,14.80
2015,09,24,10,41,14.80
2015,09,24,10,42,14.80
2015,09,24,10,43,14.90
2015,09,24,10,44,14.90
2015,09,24,10,45,14.90
2015,09,24,10,46,14.90
2015,09,24,10,47,14.90
2015,09,24,10,48,14.90
2015,09,24,10,49,15.00
2015,09,24,10,50,15.00
2015,09,24,10,51,15.10
2015,09,24,10,52,15.10
2015,09,24,10,53,15.20
2015,09,24,10,54,15.20
2015,09,24,10,55,15.20
2015,09,24,10,56,15.30
2015,09,24,10,57,15.30
2015,09,24,10,58,15.40
2015,09,24,10,59,15.50
2015,09,24,11,00,15.50
2015,09,24,11,01,15.60
2015,09,24,11,02,15.70
2015,09,24,11,03,15.70
2015,09,24,11,04,15.80
2015,09,24,11,05,15.80
2015,09,24,11,06,15.90
2015,09,24,11,07,15.90
2015,09,24,11,08,16.00
2015,09,24,11,09,16.00
2015,09,24,11,10,16.10
2015,09,24,11,11,16.10
2015,09,24,11,12,16.10
2015,09,24,11,13,16.10
2015,09,24,11,14,16.10
2015,09,24,11,15,16.20
2015,09,24,11,16,16.20
2015,09,24,11,17,16.20
2015,09,24,11,18,16.20
2015,09,24,11,19,16.20
2015,09,24,11,20,16.10
2015,09,24,11,21,16.10
2015,09,24,11,22,16.10
2015,09,24,11,23,16.10
2015,09,24,11,24,16.10
2015,09,24,11,25,16.00
2015,09,24,11,26,16.00
2015,09,24,11,27,15.90
2015,09,24,11,28,15.90
2015,09,24,11,29,15.90
2015,09,24,11,30,15.90
2015,09,24,11,31,15.90
2015,09,24,11,32,16.00
2015,09,24,11,33,16.00
2015,09,24,11,34,16.10
2015,09,24,11,35,16.10
2015,09,24,11,36,16.20
2015,09,24,11,37,16.30
2015,09,24,11,38,16.30
2015,09,24,11,39,16.30
2015,09,24,11,40,16.30
2015,09,24,11,41,16.40
2015,09,24,11,42,16.40
2015,09,24,11,43,16.40
2015,09,24,11,44,16.50
2015,09,24,11,45,16.50
2015,09,24,11,46,16.50
2015,09,24,11,47,16.60
2015,09,24,11,48,16.60
2015,09,24,11,49,16.60
2015,09,24,11,50,16.60
2015,09,24,11,51,16.50
2015,09,24,11,52,16.50
2015,09,24,11,53,16.40
2015,09,24,11,54,16.40
2015,09,24,11,55,16.50
2015,09,24,11,56,16.50
2015,09,24,11,57,16.50
2015,09,24,11,58,16.50
2015,09,24,11,59,16.40
2015,09,24,12,00,16.40
2015,09,24,12,01,16.40
2015,09,24,12,02,16.30
2015,09,24,12,03,16.30
2015,09,24,12,04,16.20
2015,09,24,12,05,16.20
2015,09,24,12,06,16.20
2015,09,24,12,07,16.10
2015,09,24,12,08,16.10
2015,09,24,12,09,16.10
2015,09,24,12,10,16.00
2015,09,24,12,11,16.00
2015,09,24,12,12,16.00
2015,09,24,12,13,15.90
2015,09,24,12,14,15.90
2015,09,24,12,15,15.90
2015,09,24,12,16,16.00
2015,09,24,12,17,16.00
2015,09,24,12,18,16.10
2015,09,24,12,19,16.10
2015,09,24,12,20,16.20
2015,09,24,12,21,16.20
2015,09,24,12,22,16.30
2015,09,24,12,23,16.30
2015,09,24,12,24,16.40
2015,09,24,12,25,16.40
2015,09,24,12,26,16.40
2015,09,24,12,27,16.50
2015,09,24,12,28,16.50
2015,09,24,12,29,16.50
2015,09,24,12,30,16.50
2015,09,24,12,31,16.50
2015,09,24,12,32,16.50
2015,09,24,12,33,16.50
2015,09,24,12,34,16.40
2015,09,24,12,35,16.40
2015,09,24,12,36,16.40
2015,09,24,12,37,16.40
2015,09,24,12,38,16.30
2015,09,24,12,39,16.30
2015,09,24,12,40,16.30
2015,09,24,12,41,16.30
2015,09,24,12,42,16.30
2015,09,24,12,43,16.30
2015,09,24,12,44,16.30
2015,09,24,12,45,16.30
2015,09,24,12,46,16.30
2015,09,24,12,47,16.30
2015,09,24,12,48,16.30
2015,09,24,12,49,16.20
2015,09,24,12,50,16.20
2015,09,24,12,51,16.20
2015,09,24,12,52,16.10
2015,09,24,12,53,16.10
2015,09,24,12,54,16.10
2015,09,24,12,55,16.10
2015,09,24,12,56,16.10
2015,09,24,12,57,16.10
2015,09,24,12,58,16.10
2015,09,24,12,59,16.10
2015,09,24,13,00,16.10
2015,09,24,13,01,16.10
2015,09,24,13,02,16.00
2015,09,24,13,03,16.00
2015,09,24,13,04,15.90
2015,09,24,13,05,15.90
2015,09,24,13,06,15.90
2015,09,24,13,07,15.90
2015,09,24,13,08,15.90
2015,09,24,13,09,15.90
2015,09,24,13,10,15.90
2015,09,24,13,11,15.90
2015,09,24,13,12,15.90
2015,09,24,13,13,15.90
2015,09,24,13,14,15.90
2015,09,24,13,15,15.90
2015,09,24,13,16,15.90
2015,09,24,13,17,15.90
2015,09,24,13,18,15.90
2015,09,24,13,19,15.90
2015,09,24,13,20,15.90
2015,09,24,13,21,15.90
2015,09,24,13,22,15.90
2015,09,24,13,23,15.90
2015,09,24,13,24,15.90
2015,09,24,13,25,15.90
2015,09,24,13,26,15.90
2015,09,24,13,27,16.00
2015,09,24,13,28,16.00
2015,09,24,13,29,16.10
2015,09,24,13,30,16.10
2015,09,24,13,31,16.10
2015,09,24,13,32,16.00
2015,09,24,13,33,16.00
2015,09,24,13,34,16.00
2015,09,24,13,35,15.90
2015,09,24,13,36,15.90
2015,09,24,13,37,15.80
2015,09,24,13,38,15.80
2015,09,24,13,39,15.80
2015,09,24,13,40,15.80
2015,09,24,13,41,15.80
2015,09,24,13,42,15.80
2015,09,24,13,43,15.80
2015,09,24,13,44,15.80
2015,09,24,13,45,15.80
2015,09,24,13,46,15.80
2015,09,24,13,47,15.80
2015,09,24,13,48,15.80
2015,09,24,13,49,15.80
2015,09,24,13,50,15.80
2015,09,24,13,51,15.80
2015,09,24,13,52,15.80
2015,09,24,13,53,15.90
2015,09,24,13,54,15.90
2015,09,24,13,55,15.90
2015,09,24,13,56,15.90
2015,09,24,13,57,16.00
2015,09,24,13,58,16.00
2015,09,24,13,59,16.10
2015,09,24,14,00,16.10
2015,09,24,14,01,16.10
2015,09,24,14,02,16.20
2015,09,24,14,03,16.20
2015,09,24,14,04,16.20
2015,09,24,14,05,16.30
2015,09,24,14,06,16.30
2015,09,24,14,07,16.40
2015,09,24,14,08,16.50
2015,09,24,14,09,16.60
2015,09,24,14,10,16.70
2015,09,24,14,11,16.80
2015,09,24,14,12,16.90
2015,09,24,14,13,17.00
2015,09,24,14,14,17.10
2015,09,24,14,15,17.20
2015,09,24,14,16,17.30
2015,09,24,14,17,17.40
2015,09,24,14,18,17.50
2015,09,24,14,19,17.60
2015,09,24,14,20,17.70
2015,09,24,14,21,17.70
2015,09,24,14,22,17.80
2015,09,24,14,23,17.80
2015,09,24,14,24,17.90
2015,09,24,14,25,17.90
2015,09,24,14,26,18.00
2015,09,24,14,27,18.00
2015,09,24,14,28,18.00
2015,09,24,14,29,17.90
2015,09,24,14,30,17.90
2015,09,24,14,31,17.90
2015,09,24,14,32,17.80
2015,09,24,14,33,17.80
2015,09,24,14,34,17.80
2015,09,24,14,35,17.70
2015,09,24,14,36,17.60
2015,09,24,14,37,17.50
2015,09,24,14,38,17.40
2015,09,24,14,39,17.30
2015,09,24,14,40,17.30
2015,09,24,14,41,17.20
2015,09,24,14,42,17.00
2015,09,24,14,43,16.90
2015,09,24,14,44,16.80
2015,09,24,14,45,16.70
2015,09,24,14,46,16.60
2015,09,24,14,47,16.50
2015,09,24,14,48,16.40
2015,09,24,14,49,16.30
2015,09,24,14,50,16.20
2015,09,24,14,51,16.10
2015,09,24,14,52,16.10
2015,09,24,14,53,16.00
2015,09,24,14,54,15.90
2015,09,24,14,55,15.80
2015,09,24,14,56,15.80
2015,09,24,14,57,15.70
2015,09,24,14,58,15.70
2015,09,24,14,59,15.60
2015,09,24,15,00,15.60
2015,09,24,15,01,15.50
2015,09,24,15,02,15.50
2015,09,24,15,03,15.50
2015,09,24,15,04,15.40
2015,09,24,15,05,15.40
2015,09,24,15,06,15.40
2015,09,24,15,07,15.30
2015,09,24,15,08,15.30
2015,09,24,15,09,15.30
2015,09,24,15,10,15.30
2015,09,24,15,11,15.30
2015,09,24,15,12,15.30
2015,09,24,15,13,15.30
2015,09,24,15,14,15.30
2015,09,24,15,15,15.30
2015,09,24,15,16,15.30
2015,09,24,15,17,15.30
2015,09,24,15,18,15.30
2015,09,24,15,19,15.30
2015,09,24,15,20,15.30
2015,09,24,15,21,15.30
2015,09,24,15,22,15.30
2015,09,24,15,23,15.30
2015,09,24,15,24,15.30
2015,09,24,15,25,15.30
2015,09,24,15,26,15.30
2015,09,24,15,27,15.30
2015,09,24,15,28,15.20
2015,09,24,15,29,15.20
2015,09,24,15,30,15.20
2015,09,24,15,31,15.20
2015,09,24,15,32,15.20
2015,09,24,15,33,15.20
2015,09,24,15,34,15.20
2015,09,24,15,35,15.20
2015,09,24,15,36,15.10
2015,09,24,15,37,15.10
2015,09,24,15,38,15.10
2015,09,24,15,39,15.00
2015,09,24,15,40,15.00
2015,09,24,15,41,14.90
2015,09,24,15,42,14.90
2015,09,24,15,43,14.80
2015,09,24,15,44,14.80
2015,09,24,15,45,14.80
2015,09,24,15,46,14.70
2015,09,24,15,47,14.70
2015,09,24,15,48,14.70
2015,09,24,15,49,14.60
2015,09,24,15,50,14.60
2015,09,24,15,51,14.50
2015,09,24,15,52,14.50
2015,09,24,15,53,14.40
2015,09,24,15,54,14.40
2015,09,24,15,55,14.40
2015,09,24,15,56,14.40
2015,09,24,15,57,14.30
2015,09,24,15,58,14.30
2015,09,24,15,59,14.20
2015,09,24,16,00,14.20
2015,09,24,16,01,14.10
2015,09,24,16,02,14.10
2015,09,24,16,03,14.00
2015,09,24,16,04,14.00
2015,09,24,16,05,14.00
2015,09,24,16,06,13.90
2015,09,24,16,07,13.90
2015,09,24,16,08,13.90
2015,09,24,16,09,13.90
2015,09,24,16,10,13.90
2015,09,24,16,11,13.90
2015,09,24,16,12,13.90
2015,09,24,16,13,13.90
2015,09,24,16,14,13.90
2015,09,24,16,15,13.90
2015,09,24,16,16,13.90
2015,09,24,16,17,13.90
2015,09,24,16,18,13.90
2015,09,24,16,19,14.00
2015,09,24,16,20,14.00
2015,09,24,16,21,14.00
2015,09,24,16,22,14.10
2015,09,24,16,23,14.10
2015,09,24,16,24,14.10
2015,09,24,16,25,14.10
2015,09,24,16,26,14.10
2015,09,24,16,27,14.10
2015,09,24,16,28,14.10
2015,09,24,16,29,14.10
2015,09,24,16,30,14.20
2015,09,24,16,31,14.20
2015,09,24,16,32,14.20
2015,09,24,16,33,14.20
2015,09,24,16,34,14.20
2015,09,24,16,35,14.20
2015,09,24,16,36,14.30
2015,09,24,16,37,14.30
2015,09,24,16,38,14.30
2015,09,24,16,39,14.30
2015,09,24,16,40,14.30
2015,09,24,16,41,14.40
2015,09,24,16,42,14.40
2015,09,24,16,43,14.40
2015,09,24,16,44,14.40
2015,09,24,16,45,14.40
2015,09,24,16,46,14.40
2015,09,24,16,47,14.40
2015,09,24,16,48,14.40
2015,09,24,16,49,14.50
2015,09,24,16,50,14.50
2015,09,24,16,51,14.50
2015,09,24,16,52,14.50
2015,09,24,16,53,14.50
2015,09,24,16,54,14.50
2015,09,24,16,55,14.50
2015,09,24,16,56,14.50
2015,09,24,16,57,14.50
2015,09,24,16,58,14.50
2015,09,24,16,59,14.60
2015,09,24,17,00,14.60
2015,09,24,17,01,14.60
2015,09,24,17,02,14.60
2015,09,24,17,03,14.60
2015,09,24,17,04,14.60
2015,09,24,17,05,14.60
2015,09,24,17,06,14.60
2015,09,24,17,07,14.60
2015,09,24,17,08,14.60
2015,09,24,17,09,14.60
2015,09,24,17,10,14.60
2015,09,24,17,11,14.60
2015,09,24,17,12,14.60
2015,09,24,17,13,14.60
2015,09,24,17,14,14.60
2015,09,24,17,15,14.60
2015,09,24,17,16,14.60
2015,09,24,17,17,14.60
2015,09,24,17,18,14.60
2015,09,24,17,19,14.60
2015,09,24,17,20,14.60
2015,09,24,17,21,14.60
2015,09,24,17,22,14.60
2015,09,24,17,23,14.60
2015,09,24,17,24,14.60
2015,09,24,17,25,14.60
2015,09,24,17,26,14.60
2015,09,24,17,27,14.60
2015,09,24,17,28,14.60
2015,09,24,17,29,14.60
2015,09,24,17,30,14.60